Weather History for PAKT - October, 2011

Change the Weather History Date:

Monday, October 24, 2011

  Actual Average Record
Temperature  
Mean Temperature 44 °F -  
Max Temperature 48 °F 50 °F 64 °F (1980)
Min Temperature 41 °F 39 °F 28 °F (1951)
Degree Days  
Heating Degree Days 22    
Moisture  
Dew Point 42 °F    
Average Humidity 92    
Maximum Humidity 100    
Minimum Humidity 86    
Precipitation  
Precipitation 0.09 in - - ()
Sea Level Pressure  
Sea Level Pressure 30.16 in    
Wind  
Wind Speed 2 mph (SSE)    
Max Wind Speed 8 mph    
Max Gust Speed -    
Visibility 10 miles    
Events Rain    
Averages and records for this station are not official NWS values.
T = Trace of Precipitation, MM = Missing Value Source: NWS Daily Summary

Daily Weather History Graph

Daily Weather History Graph

Search for Another Location

Airport or City:

Trip Planner

Search our weather history database for the weather conditions in past years. The results will help you decide how hot, cold, wet, or windy it might be!

Date:

Astronomy

Oct. 24, 2011 Rise Set
Actual Time 7:35 AM AKDT 5:26 PM AKDT
Civil Twilight 6:57 AM AKDT 6:03 PM AKDT
Nautical Twilight 6:14 AM AKDT 6:46 PM AKDT
Astronomical Twilight 5:32 AM AKDT 7:28 PM AKDT
Moon 4:43 AM AKDT (10/24) 4:07 PM AKDT (10/24)
Length of Visible Light 11h 06m
Length of Day
9h 51m
Waning Crescent, 6% of the Moon is Illuminated
Oct 24
Waning Crescent
Oct 26
New
Nov 2
First Quarter
Nov 10
Full
Nov 18
Last Quarter

Hourly Weather History & Observations

Time (AKDT) Temp. Windchill Dew Point Humidity Pressure Visibility Wind Dir Wind Speed Gust Speed Precip Events Conditions
12:10 AM 42.8 °F - 41.0 °F 93% 29.98 in 10.0 mi Calm Calm - N/A   Mostly Cloudy
12:53 AM 43.0 °F 39.5 °F 41.0 °F 93% 29.99 in 10.0 mi SSE 5.8 mph - N/A   Overcast
1:53 AM 42.1 °F - 41.0 °F 96% 30.00 in 10.0 mi Calm Calm - N/A   Mostly Cloudy
2:08 AM 42.8 °F - 39.2 °F 87% 30.00 in 10.0 mi Calm Calm - N/A   Overcast
2:17 AM 41.0 °F - 39.2 °F 93% 30.00 in 10.0 mi Calm Calm - N/A   Overcast
2:53 AM 43.0 °F - 39.9 °F 89% 30.01 in 10.0 mi Calm Calm - N/A   Overcast
3:53 AM 42.1 °F 40.2 °F 41.0 °F 96% 30.02 in 10.0 mi SSE 3.5 mph - N/A   Mostly Cloudy
4:19 AM 41.0 °F - 41.0 °F 100% 30.02 in 10.0 mi Calm Calm - N/A   Overcast
4:35 AM 42.8 °F - 39.2 °F 87% 30.02 in 10.0 mi Calm Calm - N/A   Mostly Cloudy
4:50 AM 42.8 °F - 39.2 °F 87% 30.03 in 10.0 mi Calm Calm - N/A   Mostly Cloudy
4:53 AM 42.1 °F - 39.9 °F 92% 30.03 in 10.0 mi Calm Calm - N/A   Mostly Cloudy
5:01 AM 42.8 °F 41.1 °F 41.0 °F 93% 30.03 in 10.0 mi SSE 3.5 mph - N/A   Mostly Cloudy
5:21 AM 42.8 °F - 39.2 °F 87% 30.03 in 10.0 mi Calm Calm - N/A   Overcast
5:33 AM 42.8 °F - 39.2 °F 87% 30.04 in 10.0 mi Calm Calm - N/A   Overcast
5:53 AM 42.1 °F - 39.9 °F 92% 30.05 in 10.0 mi Calm Calm - N/A   Overcast
6:44 AM 42.8 °F - 41.0 °F 93% 30.06 in 10.0 mi Calm Calm - 0.00 in   Overcast
6:53 AM 42.1 °F - 39.9 °F 92% 30.06 in 10.0 mi Calm Calm - 0.00 in   Overcast
7:53 AM 43.0 °F - 41.0 °F 93% 30.09 in 10.0 mi Calm Calm - N/A   Overcast
8:53 AM 44.1 °F - 41.0 °F 89% 30.11 in 10.0 mi Calm Calm - N/A   Overcast
9:21 AM 44.6 °F 41.4 °F 41.0 °F 87% 30.11 in 10.0 mi SE 5.8 mph - N/A   Overcast
9:53 AM 44.1 °F 40.8 °F 42.1 °F 93% 30.14 in 10.0 mi SE 5.8 mph - N/A   Overcast
10:53 AM 45.0 °F 41.2 °F 43.0 °F 93% 30.16 in 10.0 mi SE 6.9 mph - N/A   Overcast
11:05 AM 44.6 °F 40.2 °F 42.8 °F 93% 30.17 in 10.0 mi SE 8.1 mph - N/A   Overcast
11:53 AM 46.0 °F 43.1 °F 43.0 °F 89% 30.19 in 10.0 mi SE 5.8 mph - N/A   Overcast
12:53 PM 46.9 °F - 43.0 °F 86% 30.20 in 10.0 mi SE 5.8 mph - N/A   Overcast
1:53 PM 46.9 °F - 43.0 °F 86% 30.22 in 10.0 mi SE 8.1 mph - N/A   Overcast
2:53 PM 46.9 °F - 44.1 °F 90% 30.23 in 5.0 mi SE 8.1 mph - 0.01 in Rain Light Rain
3:53 PM 46.9 °F - 44.1 °F 90% 30.25 in 6.0 mi Calm Calm - 0.02 in Rain Light Rain
4:53 PM 46.0 °F - 44.1 °F 93% 30.27 in 10.0 mi Calm Calm - 0.01 in   Overcast
5:53 PM 45.0 °F 42.6 °F 43.0 °F 93% 30.28 in 10.0 mi SSE 4.6 mph - N/A   Overcast
6:53 PM 46.0 °F - 44.1 °F 93% 30.30 in 7.0 mi Calm Calm - 0.00 in Rain Light Rain
7:19 PM 44.6 °F - 44.6 °F 100% 30.31 in 4.0 mi Calm Calm - 0.04 in Rain Rain
7:53 PM 45.0 °F 43.5 °F 43.0 °F 93% 30.32 in 10.0 mi SSE 3.5 mph - 0.05 in   Overcast
8:02 PM 44.6 °F 43.1 °F 42.8 °F 93% 30.31 in 10.0 mi SSE 3.5 mph - N/A   Overcast
8:53 PM 44.1 °F 41.5 °F 42.1 °F 93% 30.33 in 10.0 mi South 4.6 mph - N/A   Overcast
9:53 PM 44.1 °F - 43.0 °F 96% 30.33 in 10.0 mi Calm Calm - N/A   Overcast
10:03 PM 44.6 °F - 42.8 °F 93% 30.33 in 10.0 mi Calm Calm - N/A   Overcast
10:22 PM 44.6 °F - 42.8 °F 93% 30.34 in 10.0 mi Calm Calm - N/A   Overcast
10:53 PM 44.1 °F 42.5 °F 43.0 °F 96% 30.35 in 10.0 mi SSE 3.5 mph - N/A   Overcast
11:10 PM 44.6 °F 43.1 °F 42.8 °F 93% 30.35 in 10.0 mi South 3.5 mph - N/A   Overcast
11:53 PM 44.1 °F 41.5 °F 42.1 °F 93% 30.35 in 10.0 mi South 4.6 mph - N/A   Overcast